This is the latest recevied weather packets stored in our database for station/object DL5DI-H. If no packets are shown the sender has not sent any weather packets the latest 10 day(s).
| Time | Temp. | Humidity | Pressure | Rain* | Wind** | Luminosity | Snow |
|---|---|---|---|---|---|---|---|
| 1777369201 | 13.89° C | 56% | 1020.4 hPa | 0 mm | - | - | - |
| 1777368601 | 13.89° C | 56% | 1020.4 hPa | 0 mm | - | - | - |
| 1777368005 | 13.89° C | 56% | 1020.4 hPa | 0 mm | - | - | - |
| 1777367401 | 13.89° C | 56% | 1020.4 hPa | 0 mm | - | - | - |
| 1777366801 | 13.89° C | 56% | 1020.4 hPa | 0 mm | - | - | - |
| 1777366201 | 13.89° C | 57% | 1020.4 hPa | 0 mm | - | - | - |
| 1777365605 | 13.33° C | 58% | 1020.4 hPa | 0 mm | - | - | - |
| 1777365004 | 12.78° C | 59% | 1020.4 hPa | 0 mm | - | - | - |
| 1777364401 | 12.78° C | 59% | 1020.3 hPa | 0 mm | - | - | - |
| 1777363801 | 12.22° C | 60% | 1020.2 hPa | 0 mm | - | - | - |
| 1777363205 | 12.22° C | 60% | 1020.2 hPa | 0 mm | - | - | - |
| 1777362605 | 11.67° C | 60% | 1020.2 hPa | 0 mm | - | - | - |
| 1777362001 | 10.56° C | 67% | 1020.2 hPa | 0 mm | - | - | - |
| 1777361405 | 10.56° C | 67% | 1020.2 hPa | 0 mm | - | - | - |
| 1777360801 | 10.56° C | 67% | 1020.2 hPa | 0 mm | - | - | - |
| 1777360201 | 10.56° C | 67% | 1020.2 hPa | 0 mm | - | - | - |
| 1777359605 | 10.56° C | 67% | 1020.2 hPa | 0 mm | - | - | - |
| 1777359001 | 10.56° C | 67% | 1020.3 hPa | 0 mm | - | - | - |
| 1777358405 | 10° C | 68% | 1020.3 hPa | 0 mm | - | - | - |
| 1777357805 | 10° C | 71% | 1020.3 hPa | 0 mm | - | - | - |
| 1777357201 | 9.44° C | 74% | 1020.1 hPa | 0 mm | - | - | - |
| 1777356601 | 8.89° C | 75% | 1020.1 hPa | 0 mm | - | - | - |
| 1777356001 | 8.33° C | 76% | 1020.1 hPa | 0 mm | - | - | - |
| 1777355401 | 7.78° C | 76% | 1020.2 hPa | 0 mm | - | - | - |
| 1777354805 | 7.22° C | 75% | 1019.8 hPa | 0 mm | - | - | - |
* Rain latest hour (hover to see other rain measurements)
** Current wind speed in m/s (hover to see current wind gust speed)